Location: U-46 Planetarium
(42.0300°N, 88.2740°W)
Time: 21:51:28
(UTC-06:00)

Cosmos 1697 Rocket - Pass Details

Date: 16 December 2017
Orbit: 834 x 842 km, 71.0° (Epoch: 21 January)

Event Time Altitude Azimuth Distance (km) Brightness Sun altitude
Rises 19:12:59 0° 234° (SW) 3,385 6.7 -30.6°
Reaches altitude 10° 19:15:44 10° 245° (WSW) 2,454 5.9 -31.1°
Maximum altitude 19:20:35 29° 305° (NW) 1,496 4.3 -32.0°
Enters shadow 19:22:32 24° 338° (NNW) 1,688 4.4 -32.4°
